| time (UTC) | temp F | wind direction | speed MPH | gust MPH | rain 1hr in | rain 24hr in | rain mn in | humidity % | barometer mb |
| 20260906150156 | 75 | 221 | 1.0 | 6.0 | 0.00 | 0.00 | 0.00 | 89 | 1019.4 |
| 20260906145654 | 75 | 106 | 0.0 | 1.0 | 0.00 | 0.00 | 0.00 | 89 | 1019.6 |
| 20260906145149 | 75 | 144 | 0.0 | 1.0 | 0.00 | 0.00 | 0.00 | 90 | 1019.5 |
| 20260906144648 | 75 | 165 | 1.0 | 1.0 | 0.00 | 0.00 | 0.00 | 90 | 1019.4 |
| 20260906144144 | 75 | 4 | 1.0 | 2.0 | 0.00 | 0.00 | 0.00 | 90 | 1019.4 |
| 20260906143643 | 75 | 118 | 0.0 | 1.0 | 0.00 | 0.00 | 0.00 | 91 | 1019.4 |
| 20260906143141 | 75 | 128 | 1.0 | 2.0 | 0.00 | 0.00 | 0.00 | 90 | 1019.4 |
| 20260906142640 | 75 | 119 | 0.0 | 2.0 | 0.00 | 0.00 | 0.00 | 91 | 1019.4 |
| 20260906142135 | 75 | 54 | 0.0 | 2.0 | 0.00 | 0.00 | 0.00 | 90 | 1019.3 |
| 20260906141634 | 75 | 134 | 0.0 | 0.0 | 0.00 | 0.00 | 0.00 | 91 | 1019.4 |
| 20260906141129 | 76 | 65 | 0.0 | 3.0 | 0.00 | 0.00 | 0.00 | 90 | 1019.3 |
| 20260906140628 | 76 | 108 | 0.0 | 2.0 | 0.00 | 0.00 | 0.00 | 90 | 1019.2 |
| 20260906140124 | 76 | 163 | 1.0 | 6.0 | 0.00 | 0.00 | 0.00 | 90 | 1018.9 |
| 20260906135621 | 76 | 190 | 1.0 | 3.0 | 0.00 | 0.00 | 0.00 | 90 | 1019.0 |
| 20260906135116 | 76 | 329 | 1.0 | 3.0 | 0.00 | 0.00 | 0.00 | 90 | 1019.1 |
| 20260906134612 | 76 | 127 | 0.0 | 1.0 | 0.00 | 0.00 | 0.00 | 90 | 1018.9 |
| 20260906134107 | 76 | 185 | 1.0 | 3.0 | 0.00 | 0.00 | 0.00 | 90 | 1018.9 |
| 20260906133603 | 76 | 130 | 0.0 | 0.0 | 0.00 | 0.00 | 0.00 | 91 | 1018.8 |
| 20260906133057 | 75 | 150 | 0.0 | 5.0 | 0.00 | 0.00 | 0.00 | 91 | 1018.6 |
| 20260906132552 | 75 | 93 | 1.0 | 5.0 | 0.00 | 0.00 | 0.00 | 91 | 1018.8 |
| 20260906132048 | 75 | 119 | 0.0 | 6.0 | 0.00 | 0.00 | 0.00 | 92 | 1018.6 |
| 20260906131543 | 75 | 321 | 1.0 | 3.0 | 0.00 | 0.00 | 0.00 | 92 | 1018.7 |
| 20260906131039 | 75 | 161 | 0.0 | 2.0 | 0.00 | 0.00 | 0.00 | 92 | 1018.8 |
| 20260906130538 | 75 | 135 | 0.0 | 3.0 | 0.00 | 0.00 | 0.00 | 91 | 1018.9 |
| 20260906130033 | 75 | 123 | 0.0 | 3.0 | 0.00 | 0.00 | 0.00 | 91 | 1018.8 |
| 20260906125530 | 75 | 144 | 0.0 | 1.0 | 0.00 | 0.00 | 0.00 | 91 | 1018.8 |
| 20260906125025 | 75 | 165 | 0.0 | 2.0 | 0.00 | 0.00 | 0.00 | 91 | 1018.7 |
| 20260906124521 | 75 | 121 | 0.0 | 2.0 | 0.00 | 0.00 | 0.00 | 92 | 1018.5 |
| 20260906124015 | 75 | 150 | 1.0 | 5.0 | 0.00 | 0.00 | 0.00 | 92 | 1018.5 |
| 20260906123514 | 75 | 195 | 0.0 | 2.0 | 0.00 | 0.00 | 0.00 | 92 | 1018.4 |
| 20260906123010 | 75 | 280 | 1.0 | 2.0 | 0.00 | 0.00 | 0.00 | 92 | 1018.3 |
| 20260906122504 | 75 | 128 | 1.0 | 2.0 | 0.00 | 0.00 | 0.00 | 92 | 1018.2 |
| 20260906122000 | 75 | 74 | 3.0 | 5.0 | 0.00 | 0.00 | 0.00 | 92 | 1018.2 |
| 20260906121456 | 75 | 41 | 2.0 | 6.0 | 0.00 | 0.00 | 0.00 | 93 | 1018.0 |
| 20260906120952 | 75 | 299 | 1.0 | 2.0 | 0.00 | 0.00 | 0.00 | 93 | 1018.0 |
| 20260906120447 | 75 | 258 | 1.0 | 2.0 | 0.00 | 0.00 | 0.00 | 94 | 1018.1 |
| 20260906115944 | 75 | 90 | 1.0 | 3.0 | 0.00 | 0.00 | 0.00 | 94 | 1018.0 |
| 20260906115438 | 75 | 90 | 2.0 | 3.0 | 0.00 | 0.00 | 0.00 | 95 | 1017.9 |
| 20260906114938 | 75 | 131 | 0.0 | 1.0 | 0.00 | 0.00 | 0.00 | 95 | 1017.8 |
| 20260906114433 | 75 | 140 | 0.0 | 1.0 | 0.00 | 0.00 | 0.00 | 95 | 1017.8 |
| 20260906113929 | 75 | 113 | 1.0 | 1.0 | 0.00 | 0.00 | 0.00 | 95 | 1017.6 |
| 20260906113427 | 75 | 124 | 0.0 | 0.0 | 0.00 | 0.00 | 0.00 | 95 | 1017.6 |
| 20260906112923 | 75 | 163 | 1.0 | 2.0 | 0.00 | 0.00 | 0.00 | 95 | 1017.6 |
| 20260906112419 | 74 | 328 | 2.0 | 3.0 | 0.00 | 0.00 | 0.00 | 95 | 1017.3 |
| 20260906111914 | 74 | 301 | 1.0 | 2.0 | 0.00 | 0.00 | 0.00 | 96 | 1017.6 |
| 20260906111413 | 74 | 55 | 1.0 | 1.0 | 0.00 | 0.00 | 0.00 | 96 | 1017.4 |
| 20260906110909 | 74 | 86 | 0.0 | 1.0 | 0.00 | 0.00 | 0.00 | 96 | 1017.2 |
| 20260906110404 | 74 | 125 | 0.0 | 0.0 | 0.00 | 0.00 | 0.00 | 96 | 1017.4 |
| 20260906105903 | 74 | 121 | 0.0 | 1.0 | 0.00 | 0.00 | 0.00 | 96 | 1017.5 |
| 20260906105359 | 74 | 78 | 0.0 | 3.0 | 0.00 | 0.00 | 0.00 | 96 | 1017.4 |
| 20260906104854 | 74 | 147 | 0.0 | 1.0 | 0.00 | 0.00 | 0.00 | 96 | 1017.5 |
| 20260906104353 | 74 | 85 | 1.0 | 2.0 | 0.00 | 0.00 | 0.00 | 96 | 1017.4 |
| 20260906103852 | 74 | 298 | 1.0 | 3.0 | 0.00 | 0.00 | 0.00 | 96 | 1017.2 |
| 20260906103350 | 74 | 174 | 0.0 | 1.0 | 0.00 | 0.00 | 0.00 | 96 | 1017.2 |
| 20260906102846 | 74 | 142 | 1.0 | 2.0 | 0.00 | 0.00 | 0.00 | 96 | 1017.0 |
| 20260906102345 | 74 | 164 | 0.0 | 2.0 | 0.00 | 0.00 | 0.00 | 96 | 1016.9 |
| 20260906101840 | 74 | 102 | 0.0 | 2.0 | 0.00 | 0.00 | 0.00 | 97 | 1017.3 |
| 20260906101335 | 74 | 159 | 0.0 | 1.0 | 0.00 | 0.00 | 0.00 | 97 | 1017.0 |
| 20260906100831 | 73 | 239 | 1.0 | 2.0 | 0.00 | 0.00 | 0.00 | 97 | 1017.0 |
| 20260906100330 | 73 | 128 | 0.0 | 0.0 | 0.00 | 0.00 | 0.00 | 98 | 1017.0 |
| 20260906095825 | 73 | 8 | 1.0 | 1.0 | 0.00 | 0.00 | 0.00 | 98 | 1016.8 |
| 20260906095321 | 73 | 122 | 0.0 | 0.0 | 0.00 | 0.00 | 0.00 | 98 | 1016.9 |
| 20260906094820 | 73 | 129 | 0.0 | 1.0 | 0.00 | 0.00 | 0.00 | 98 | 1016.8 |
| 20260906094315 | 73 | 120 | 0.0 | 2.0 | 0.00 | 0.00 | 0.00 | 98 | 1016.4 |
| 20260906093812 | 73 | 127 | 0.0 | 0.0 | 0.00 | 0.00 | 0.00 | 97 | 1016.6 |
| 20260906093307 | 73 | 121 | 0.0 | 0.0 | 0.00 | 0.00 | 0.00 | 97 | 1016.5 |
| 20260906092802 | 73 | 125 | 0.0 | 1.0 | 0.00 | 0.00 | 0.00 | 97 | 1016.4 |
| 20260906092305 | 73 | 113 | 0.0 | 2.0 | 0.00 | 0.00 | 0.00 | 97 | 1016.5 |
| 20260906091758 | 73 | 124 | 0.0 | 0.0 | 0.00 | 0.00 | 0.00 | 97 | 1016.5 |
| 20260906091254 | 73 | 123 | 0.0 | 0.0 | 0.00 | 0.00 | 0.00 | 97 | 1016.4 |
| 20260906090750 | 73 | 129 | 0.0 | 0.0 | 0.00 | 0.00 | 0.00 | 97 | 1016.4 |
| 20260906090248 | 73 | 135 | 0.0 | 0.0 | 0.00 | 0.00 | 0.00 | 96 | 1016.2 |
| 20260906085748 | 73 | 130 | 0.0 | 0.0 | 0.00 | 0.00 | 0.00 | 96 | 1016.3 |
| 20260906085242 | 74 | 107 | 0.0 | 0.0 | 0.00 | 0.00 | 0.00 | 95 | 1016.2 |
| 20260906084736 | 74 | 133 | 0.0 | 0.0 | 0.00 | 0.00 | 0.00 | 95 | 1016.4 |
| 20260906084231 | 74 | 128 | 0.0 | 0.0 | 0.00 | 0.00 | 0.00 | 94 | 1016.4 |
| 20260906083726 | 75 | 124 | 0.0 | 0.0 | 0.00 | 0.00 | 0.00 | 94 | 1016.3 |
| 20260906083221 | 75 | 124 | 0.0 | 0.0 | 0.00 | 0.00 | 0.00 | 94 | 1016.5 |
| 20260906082716 | 75 | 126 | 0.0 | 0.0 | 0.00 | 0.00 | 0.00 | 94 | 1016.4 |
| 20260906082211 | 75 | 140 | 0.0 | 0.0 | 0.00 | 0.00 | 0.00 | 94 | 1016.3 |
| 20260906081707 | 75 | 123 | 0.0 | 0.0 | 0.00 | 0.00 | 0.00 | 94 | 1016.3 |
| 20260906081202 | 75 | 121 | 0.0 | 0.0 | 0.00 | 0.00 | 0.00 | 94 | 1016.5 |
| 20260906080659 | 75 | 115 | 0.0 | 0.0 | 0.00 | 0.00 | 0.00 | 95 | 1016.5 |
| 20260906080154 | 75 | 115 | 0.0 | 1.0 | 0.00 | 0.00 | 0.00 | 95 | 1016.4 |
| 20260906075654 | 75 | 113 | 0.0 | 0.0 | 0.00 | 0.00 | 0.00 | 96 | 1016.5 |
| 20260906075143 | 75 | 111 | 0.0 | 1.0 | 0.00 | 0.00 | 0.00 | 97 | 1016.4 |
| 20260906074638 | 75 | 136 | 1.0 | 1.0 | 0.00 | 0.00 | 0.00 | 98 | 1016.4 |
| 20260906074137 | 74 | 12 | 1.0 | 2.0 | 0.00 | 0.00 | 0.00 | 98 | 1016.3 |
| 20260906073632 | 74 | 116 | 0.0 | 0.0 | 0.00 | 0.00 | 0.00 | 99 | 1016.3 |
| 20260906073128 | 74 | 123 | 0.0 | 0.0 | 0.00 | 0.00 | 0.00 | 99 | 1016.4 |
| 20260906072623 | 74 | 125 | 0.0 | 0.0 | 0.00 | 0.00 | 0.00 | 99 | 1016.2 |
| 20260906072119 | 74 | 109 | 0.0 | 0.0 | 0.00 | 0.00 | 0.00 | 99 | 1016.1 |
| 20260906071615 | 74 | 118 | 0.0 | 0.0 | 0.00 | 0.00 | 0.00 | 98 | 1016.1 |
| 20260906071109 | 74 | 120 | 0.0 | 0.0 | 0.00 | 0.00 | 0.00 | 98 | 1016.4 |
| 20260906070606 | 74 | 108 | 0.0 | 0.0 | 0.00 | 0.00 | 0.00 | 98 | 1016.2 |
| 20260906070101 | 74 | 127 | 0.0 | 1.0 | 0.00 | 0.00 | 0.00 | 98 | 1016.5 |
| 20260906065601 | 74 | 108 | 0.0 | 1.0 | 0.00 | 0.00 | 0.00 | 98 | 1016.4 |
| 20260906065056 | 74 | 118 | 0.0 | 0.0 | 0.00 | 0.00 | 0.00 | 98 | 1016.5 |
| 20260906064552 | 74 | 94 | 0.0 | 0.0 | 0.00 | 0.00 | 0.00 | 97 | 1016.4 |
| 20260906064046 | 75 | 114 | 0.0 | 0.0 | 0.00 | 0.00 | 0.00 | 97 | 1016.4 |
| 20260906063542 | 75 | 116 | 0.0 | 0.0 | 0.00 | 0.00 | 0.00 | 97 | 1016.5 |
| 20260906063038 | 75 | 114 | 0.0 | 1.0 | 0.00 | 0.00 | 0.00 | 97 | 1016.5 |
| 20260906062533 | 75 | 125 | 0.0 | 0.0 | 0.00 | 0.00 | 0.00 | 97 | 1016.5 |
| 20260906062027 | 75 | 104 | 0.0 | 1.0 | 0.00 | 0.00 | 0.00 | 96 | 1016.4 |
| 20260906061523 | 75 | 118 | 0.0 | 0.0 | 0.00 | 0.00 | 0.00 | 96 | 1016.5 |
| 20260906061022 | 76 | 112 | 0.0 | 0.0 | 0.00 | 0.00 | 0.00 | 95 | 1016.6 |
| 20260906060519 | 76 | 122 | 0.0 | 0.0 | 0.00 | 0.00 | 0.00 | 95 | 1016.5 |
| 20260906060016 | 76 | 113 | 0.0 | 1.0 | 0.00 | 0.00 | 0.00 | 94 | 1016.5 |
| 20260906055511 | 76 | 114 | 0.0 | 0.0 | 0.00 | 0.00 | 0.00 | 94 | 1016.4 |
| 20260906055006 | 77 | 127 | 0.0 | 0.0 | 0.00 | 0.00 | 0.00 | 94 | 1016.4 |
| 20260906054501 | 77 | 106 | 0.0 | 0.0 | 0.00 | 0.00 | 0.00 | 94 | 1016.4 |
| 20260906053956 | 77 | 46 | 2.0 | 5.0 | 0.00 | 0.00 | 0.00 | 94 | 1016.6 |
| 20260906053453 | 77 | 104 | 0.0 | 0.0 | 0.00 | 0.00 | 0.00 | 95 | 1016.5 |
| 20260906052948 | 76 | 97 | 1.0 | 2.0 | 0.00 | 0.00 | 0.00 | 95 | 1016.4 |
| 20260906052444 | 76 | 193 | 0.0 | 0.0 | 0.00 | 0.00 | 0.00 | 96 | 1016.5 |
| 20260906051941 | 76 | 118 | 0.0 | 0.0 | 0.00 | 0.00 | 0.00 | 96 | 1016.3 |
| 20260906051436 | 77 | 114 | 0.0 | 0.0 | 0.00 | 0.00 | 0.00 | 95 | 1016.2 |
| 20260906050932 | 77 | 115 | 0.0 | 0.0 | 0.00 | 0.00 | 0.00 | 95 | 1016.2 |
| 20260906050431 | 77 | 115 | 0.0 | 0.0 | 0.00 | 0.00 | 0.00 | 95 | 1016.2 |
| 20260906045931 | 77 | 110 | 0.0 | 0.0 | 0.00 | 0.00 | 0.00 | 95 | 1016.0 |
| 20260906045429 | 77 | 110 | 0.0 | 0.0 | 0.00 | 0.00 | 0.00 | 94 | 1016.1 |
| 20260906044925 | 77 | 130 | 0.0 | 0.0 | 0.00 | 0.00 | 0.00 | 94 | 1016.0 |
| 20260906044420 | 78 | 126 | 0.0 | 0.0 | 0.00 | 0.00 | 0.00 | 94 | 1016.0 |
| 20260906043916 | 78 | 115 | 0.0 | 0.0 | 0.00 | 0.00 | 0.00 | 93 | 1016.0 |
| 20260906043412 | 78 | 122 | 0.0 | 0.0 | 0.00 | 0.00 | 0.00 | 93 | 1016.0 |
| 20260906042907 | 78 | 130 | 0.0 | 1.0 | 0.00 | 0.00 | 0.00 | 93 | 1016.1 |
| 20260906042406 | 78 | 123 | 0.0 | 0.0 | 0.00 | 0.00 | 0.00 | 92 | 1016.1 |
| 20260906041901 | 78 | 138 | 0.0 | 0.0 | 0.00 | 0.00 | 0.00 | 92 | 1015.9 |
| 20260906041357 | 78 | 116 | 0.0 | 2.0 | 0.00 | 0.00 | 0.00 | 92 | 1016.0 |
| 20260906040857 | 78 | 148 | 0.0 | 0.0 | 0.00 | 0.00 | 0.00 | 91 | 1015.8 |
| 20260906040352 | 78 | 112 | 0.0 | 1.0 | 0.00 | 0.00 | 0.00 | 91 | 1015.8 |
| 20260906035848 | 78 | 119 | 0.0 | 1.0 | 0.00 | 0.00 | 0.00 | 91 | 1015.5 |
| 20260906035343 | 79 | 99 | 1.0 | 2.0 | 0.00 | 0.00 | 0.00 | 90 | 1015.5 |
| 20260906034838 | 78 | 139 | 1.0 | 2.0 | 0.00 | 0.00 | 0.00 | 91 | 1015.5 |
| 20260906034333 | 78 | 113 | 0.0 | 0.0 | 0.00 | 0.00 | 0.00 | 93 | 1015.8 |
| 20260906033829 | 78 | 116 | 0.0 | 0.0 | 0.00 | 0.00 | 0.00 | 92 | 1015.2 |
| 20260906033328 | 78 | 116 | 0.0 | 0.0 | 0.00 | 0.00 | 0.00 | 92 | 1015.3 |
| 20260906032825 | 78 | 116 | 0.0 | 0.0 | 0.00 | 0.00 | 0.00 | 92 | 1015.3 |
| 20260906032320 | 78 | 116 | 0.0 | 0.0 | 0.00 | 0.00 | 0.00 | 92 | 1015.4 |
| 20260906031815 | 79 | 116 | 0.0 | 0.0 | 0.00 | 0.00 | 0.00 | 91 | 1015.4 |
| 20260906031311 | 79 | 116 | 0.0 | 0.0 | 0.00 | 0.00 | 0.00 | 91 | 1015.4 |
| 20260906030810 | 79 | 116 | 0.0 | 0.0 | 0.00 | 0.00 | 0.00 | 91 | 1015.5 |
| 20260906030305 | 79 | 116 | 0.0 | 0.0 | 0.00 | 0.00 | 0.00 | 90 | 1015.4 |
| 20260906025805 | 79 | 116 | 0.0 | 0.0 | 0.00 | 0.00 | 0.00 | 90 | 1015.6 |
| 20260906025259 | 79 | 104 | 0.0 | 0.0 | 0.00 | 0.00 | 0.00 | 89 | 1015.6 |
| 20260906024758 | 80 | 118 | 0.0 | 0.0 | 0.00 | 0.00 | 0.00 | 89 | 1015.5 |
| 20260906024252 | 80 | 118 | 0.0 | 0.0 | 0.00 | 0.00 | 0.00 | 88 | 1015.5 |
| 20260906023748 | 80 | 118 | 0.0 | 0.0 | 0.00 | 0.00 | 0.00 | 87 | 1015.4 |
| 20260906023242 | 81 | 127 | 0.0 | 0.0 | 0.00 | 0.00 | 0.00 | 86 | 1015.4 |
| 20260906022738 | 80 | 131 | 0.0 | 0.0 | 0.00 | 0.00 | 0.00 | 87 | 1015.5 |
| 20260906022233 | 80 | 116 | 0.0 | 0.0 | 0.00 | 0.00 | 0.00 | 86 | 1015.4 |
| 20260906021729 | 81 | 116 | 0.0 | 0.0 | 0.00 | 0.00 | 0.00 | 85 | 1015.4 |
| 20260906021227 | 81 | 115 | 0.0 | 0.0 | 0.00 | 0.00 | 0.00 | 84 | 1015.1 |
| 20260906020722 | 81 | 115 | 0.0 | 0.0 | 0.00 | 0.00 | 0.00 | 83 | 1015.3 |
| 20260906020217 | 81 | 119 | 0.0 | 0.0 | 0.00 | 0.00 | 0.00 | 83 | 1015.2 |
| 20260906015712 | 82 | 120 | 0.0 | 0.0 | 0.00 | 0.00 | 0.00 | 82 | 1015.2 |
| 20260906015210 | 81 | 124 | 0.0 | 0.0 | 0.00 | 0.00 | 0.00 | 82 | 1015.1 |
| 20260906014710 | 81 | 120 | 0.0 | 0.0 | 0.00 | 0.00 | 0.00 | 84 | 1015.2 |
| 20260906014206 | 81 | 115 | 0.0 | 0.0 | 0.00 | 0.00 | 0.00 | 85 | 1014.9 |
| 20260906013703 | 81 | 108 | 0.0 | 0.0 | 0.00 | 0.00 | 0.00 | 84 | 1014.6 |
| 20260906013203 | 81 | 120 | 0.0 | 0.0 | 0.00 | 0.00 | 0.00 | 84 | 1014.8 |
| 20260906012658 | 81 | 115 | 0.0 | 0.0 | 0.00 | 0.00 | 0.00 | 83 | 1014.7 |
| 20260906012158 | 82 | 115 | 0.0 | 0.0 | 0.00 | 0.00 | 0.00 | 83 | 1014.7 |
| 20260906011654 | 82 | 115 | 0.0 | 0.0 | 0.00 | 0.00 | 0.00 | 83 | 1014.5 |
| 20260906011148 | 82 | 114 | 0.0 | 1.0 | 0.00 | 0.00 | 0.00 | 82 | 1014.5 |
| 20260906010643 | 83 | 111 | 0.0 | 0.0 | 0.00 | 0.00 | 0.00 | 81 | 1014.4 |
| 20260906010140 | 84 | 120 | 0.0 | 0.0 | 0.00 | 0.00 | 0.00 | 79 | 1014.5 |
| 20260906005639 | 84 | 121 | 0.0 | 0.0 | 0.00 | 0.00 | 0.00 | 78 | 1014.4 |
| 20260906005138 | 84 | 121 | 0.0 | 0.0 | 0.00 | 0.00 | 0.00 | 78 | 1014.2 |
| 20260906004638 | 85 | 121 | 0.0 | 0.0 | 0.00 | 0.00 | 0.00 | 78 | 1014.4 |
| 20260906004133 | 85 | 121 | 0.0 | 0.0 | 0.00 | 0.00 | 0.00 | 78 | 1014.5 |
| 20260906003628 | 85 | 121 | 0.0 | 0.0 | 0.00 | 0.00 | 0.00 | 78 | 1014.2 |
| 20260906003124 | 86 | 121 | 0.0 | 0.0 | 0.00 | 0.00 | 0.00 | 78 | 1014.5 |
| 20260906002619 | 86 | 121 | 0.0 | 0.0 | 0.00 | 0.00 | 0.00 | 76 | 1014.5 |
| 20260906002113 | 86 | 121 | 0.0 | 0.0 | 0.00 | 0.00 | 0.00 | 75 | 1014.5 |
| 20260906001608 | 87 | 121 | 0.0 | 0.0 | 0.00 | 0.00 | 0.00 | 75 | 1014.5 |
| 20260906001103 | 87 | 121 | 0.0 | 0.0 | 0.00 | 0.00 | 0.00 | 73 | 1014.5 |
| 20260906000559 | 88 | 121 | 0.0 | 0.0 | 0.00 | 0.00 | 0.00 | 72 | 1014.7 |
| 20260906000054 | 88 | 121 | 0.0 | 0.0 | 0.00 | 0.00 | 0.00 | 71 | 1014.7 |
| 20260905235553 | 88 | 121 | 0.0 | 0.0 | 0.00 | 0.00 | 0.00 | 70 | 1014.8 |
| 20260905235048 | 88 | 121 | 0.0 | 0.0 | 0.00 | 0.00 | 0.00 | 69 | 1014.9 |
| 20260905234543 | 89 | 123 | 0.0 | 0.0 | 0.00 | 0.00 | 0.00 | 68 | 1014.8 |
| 20260905234038 | 89 | 123 | 0.0 | 0.0 | 0.00 | 0.00 | 0.00 | 67 | 1015.0 |
| 20260905233533 | 89 | 111 | 0.0 | 0.0 | 0.00 | 0.00 | 0.00 | 68 | 1015.0 |
| 20260905233033 | 89 | 111 | 0.0 | 0.0 | 0.00 | 0.00 | 0.00 | 67 | 1014.8 |
| 20260905232528 | 90 | 110 | 0.0 | 0.0 | 0.00 | 0.00 | 0.00 | 66 | 1014.9 |
| 20260905232024 | 91 | 113 | 0.0 | 0.0 | 0.00 | 0.00 | 0.00 | 64 | 1015.0 |
| 20260905231519 | 91 | 113 | 0.0 | 0.0 | 0.00 | 0.00 | 0.00 | 63 | 1014.9 |
| 20260905231015 | 92 | 113 | 0.0 | 0.0 | 0.00 | 0.00 | 0.00 | 63 | 1014.8 |
| 20260905230514 | 92 | 113 | 0.0 | 0.0 | 0.00 | 0.00 | 0.00 | 62 | 1014.7 |
| 20260905230013 | 93 | 113 | 0.0 | 0.0 | 0.00 | 0.00 | 0.00 | 61 | 1014.6 |
| 20260905225508 | 93 | 113 | 0.0 | 0.0 | 0.00 | 0.00 | 0.00 | 59 | 1014.6 |
| 20260905225003 | 93 | 100 | 1.0 | 1.0 | 0.00 | 0.00 | 0.00 | 56 | 1014.5 |
| 20260905224458 | 94 | 125 | 0.0 | 1.0 | 0.00 | 0.00 | 0.00 | 56 | 1014.4 |
| 20260905223957 | 94 | 69 | 0.0 | 1.0 | 0.00 | 0.00 | 0.00 | 55 | 1014.5 |
| 20260905223455 | 95 | 108 | 0.0 | 3.0 | 0.00 | 0.00 | 0.00 | 52 | 1014.5 |
| 20260905222950 | 96 | 104 | 1.0 | 2.0 | 0.00 | 0.00 | 0.00 | 52 | 1014.3 |
| 20260905222450 | 98 | 118 | 0.0 | 2.0 | 0.00 | 0.00 | 0.00 | 50 | 1014.2 |
| 20260905221945 | 98 | 174 | 0.0 | 1.0 | 0.00 | 0.00 | 0.00 | 47 | 1014.3 |
| 20260905221441 | 98 | 205 | 1.0 | 5.0 | 0.00 | 0.00 | 0.00 | 48 | 1014.4 |
| 20260905220938 | 98 | 120 | 1.0 | 3.0 | 0.00 | 0.00 | 0.00 | 47 | 1014.4 |
| 20260905220433 | 100 | 29 | 1.0 | 3.0 | 0.00 | 0.00 | 0.00 | 46 | 1014.2 |
| 20260905215932 | 100 | 147 | 1.0 | 1.0 | 0.00 | 0.00 | 0.00 | 46 | 1014.3 |
| 20260905215428 | 99 | 259 | 2.0 | 3.0 | 0.00 | 0.00 | 0.00 | 46 | 1014.4 |
| 20260905214924 | 99 | 19 | 0.0 | 3.0 | 0.00 | 0.00 | 0.00 | 46 | 1014.4 |
| 20260905214420 | 99 | 261 | 1.0 | 3.0 | 0.00 | 0.00 | 0.00 | 46 | 1014.5 |
| 20260905213920 | 99 | 353 | 5.0 | 6.0 | 0.00 | 0.00 | 0.00 | 45 | 1014.5 |
| 20260905213416 | 99 | 242 | 3.0 | 7.0 | 0.00 | 0.00 | 0.00 | 46 | 1014.6 |
| 20260905212911 | 99 | 263 | 3.0 | 6.0 | 0.00 | 0.00 | 0.00 | 45 | 1014.7 |
| 20260905212406 | 99 | 156 | 1.0 | 5.0 | 0.00 | 0.00 | 0.00 | 45 | 1014.5 |
| 20260905211900 | 98 | 192 | 1.0 | 3.0 | 0.00 | 0.00 | 0.00 | 46 | 1014.5 |
| 20260905211355 | 99 | 163 | 1.0 | 5.0 | 0.00 | 0.00 | 0.00 | 45 | 1014.5 |
| 20260905210851 | 100 | 253 | 3.0 | 5.0 | 0.00 | 0.00 | 0.00 | 45 | 1014.6 |
| 20260905210351 | 99 | 276 | 2.0 | 6.0 | 0.00 | 0.00 | 0.00 | 45 | 1014.7 |
| 20260905205850 | 99 | 21 | 2.0 | 6.0 | 0.00 | 0.00 | 0.00 | 45 | 1014.6 |
| 20260905205345 | 99 | 172 | 2.0 | 6.0 | 0.00 | 0.00 | 0.00 | 44 | 1014.7 |
| 20260905204844 | 99 | 331 | 3.0 | 6.0 | 0.00 | 0.00 | 0.00 | 45 | 1014.7 |
| 20260905204341 | 100 | 97 | 1.0 | 6.0 | 0.00 | 0.00 | 0.00 | 44 | 1014.7 |
| 20260905203839 | 102 | 283 | 2.0 | 3.0 | 0.00 | 0.00 | 0.00 | 44 | 1014.8 |
| 20260905203335 | 102 | 21 | 2.0 | 2.0 | 0.00 | 0.00 | 0.00 | 43 | 1015.0 |
| 20260905202831 | 101 | 124 | 0.0 | 0.0 | 0.00 | 0.00 | 0.00 | 43 | 1014.9 |
| 20260905202325 | 101 | 38 | 2.0 | 3.0 | 0.00 | 0.00 | 0.00 | 45 | 1014.8 |
| 20260905201821 | 98 | 141 | 1.0 | 1.0 | 0.00 | 0.00 | 0.00 | 47 | 1015.1 |
| 20260905201316 | 100 | 72 | 2.0 | 3.0 | 0.00 | 0.00 | 0.00 | 47 | 1015.1 |
| 20260905200811 | 100 | 170 | 1.0 | 3.0 | 0.00 | 0.00 | 0.00 | 47 | 1015.1 |
| 20260905200307 | 100 | 138 | 2.0 | 3.0 | 0.00 | 0.00 | 0.00 | 47 | 1015.1 |
| 20260905195804 | 99 | 170 | 2.0 | 3.0 | 0.00 | 0.00 | 0.00 | 46 | 1015.3 |
| 20260905195259 | 99 | 127 | 0.0 | 3.0 | 0.00 | 0.00 | 0.00 | 46 | 1015.4 |
| 20260905194755 | 100 | 12 | 4.0 | 7.0 | 0.00 | 0.00 | 0.00 | 46 | 1015.5 |
| 20260905194255 | 99 | 115 | 1.0 | 3.0 | 0.00 | 0.00 | 0.00 | 47 | 1015.5 |
| 20260905193754 | 98 | 318 | 2.0 | 2.0 | 0.00 | 0.00 | 0.00 | 47 | 1015.8 |
| 20260905193249 | 98 | 97 | 1.0 | 3.0 | 0.00 | 0.00 | 0.00 | 47 | 1015.8 |
| 20260905192744 | 97 | 140 | 2.0 | 2.0 | 0.00 | 0.00 | 0.00 | 48 | 1015.8 |
| 20260905192241 | 98 | 184 | 3.0 | 5.0 | 0.00 | 0.00 | 0.00 | 47 | 1015.9 |
| 20260905191740 | 97 | 153 | 0.0 | 1.0 | 0.00 | 0.00 | 0.00 | 48 | 1016.1 |
| 20260905191239 | 96 | 162 | 3.0 | 3.0 | 0.00 | 0.00 | 0.00 | 49 | 1016.2 |
| 20260905190737 | 96 | 151 | 2.0 | 3.0 | 0.00 | 0.00 | 0.00 | 49 | 1016.2 |
| 20260905190236 | 97 | 167 | 1.0 | 3.0 | 0.00 | 0.00 | 0.00 | 48 | 1016.2 |
| 20260905185736 | 97 | 291 | 1.0 | 2.0 | 0.00 | 0.00 | 0.00 | 48 | 1016.6 |
| 20260905185231 | 96 | 149 | 2.0 | 5.0 | 0.00 | 0.00 | 0.00 | 49 | 1016.5 |
| 20260905184725 | 97 | 140 | 0.0 | 1.0 | 0.00 | 0.00 | 0.00 | 47 | 1016.6 |
| 20260905184224 | 96 | 134 | 1.0 | 3.0 | 0.00 | 0.00 | 0.00 | 47 | 1016.6 |
| 20260905183724 | 96 | 140 | 1.0 | 2.0 | 0.00 | 0.00 | 0.00 | 49 | 1016.7 |
| 20260905183219 | 96 | 338 | 1.0 | 5.0 | 0.00 | 0.00 | 0.00 | 49 | 1016.8 |
| 20260905182719 | 95 | 106 | 0.0 | 5.0 | 0.00 | 0.00 | 0.00 | 49 | 1016.7 |
| 20260905182218 | 96 | 157 | 1.0 | 5.0 | 0.00 | 0.00 | 0.00 | 48 | 1016.9 |
| 20260905181714 | 96 | 120 | 0.0 | 3.0 | 0.00 | 0.00 | 0.00 | 47 | 1017.0 |
| 20260905181213 | 96 | 163 | 1.0 | 3.0 | 0.00 | 0.00 | 0.00 | 49 | 1017.2 |
| 20260905180707 | 96 | 188 | 3.0 | 5.0 | 0.00 | 0.00 | 0.00 | 48 | 1017.2 |
| 20260905180203 | 95 | 165 | 2.0 | 3.0 | 0.00 | 0.00 | 0.00 | 51 | 1017.2 |
| 20260905175702 | 95 | 263 | 3.0 | 8.0 | 0.00 | 0.00 | 0.00 | 51 | 1017.2 |
| 20260905175157 | 94 | 126 | 2.0 | 2.0 | 0.00 | 0.00 | 0.00 | 50 | 1017.2 |
| 20260905174653 | 94 | 150 | 3.0 | 6.0 | 0.00 | 0.00 | 0.00 | 51 | 1017.2 |
| 20260905174148 | 94 | 129 | 3.0 | 5.0 | 0.00 | 0.00 | 0.00 | 52 | 1017.3 |
| 20260905173644 | 94 | 175 | 1.0 | 3.0 | 0.00 | 0.00 | 0.00 | 50 | 1017.3 |
| 20260905173140 | 94 | 275 | 2.0 | 5.0 | 0.00 | 0.00 | 0.00 | 51 | 1017.4 |
| 20260905172639 | 93 | 130 | 3.0 | 3.0 | 0.00 | 0.00 | 0.00 | 53 | 1017.4 |
| 20260905172133 | 93 | 170 | 5.0 | 6.0 | 0.00 | 0.00 | 0.00 | 53 | 1017.5 |
| 20260905171630 | 94 | 201 | 3.0 | 3.0 | 0.00 | 0.00 | 0.00 | 51 | 1017.5 |
| 20260905171125 | 93 | 169 | 1.0 | 3.0 | 0.00 | 0.00 | 0.00 | 54 | 1017.4 |
| 20260905170622 | 92 | 127 | 4.0 | 6.0 | 0.00 | 0.00 | 0.00 | 55 | 1017.5 |
| 20260905170117 | 92 | 329 | 3.0 | 6.0 | 0.00 | 0.00 | 0.00 | 56 | 1017.5 |
| 20260905165611 | 92 | 202 | 2.0 | 6.0 | 0.00 | 0.00 | 0.00 | 57 | 1017.6 |
| 20260905165107 | 92 | 149 | 2.0 | 6.0 | 0.00 | 0.00 | 0.00 | 57 | 1017.8 |
| 20260905164601 | 92 | 145 | 1.0 | 6.0 | 0.00 | 0.00 | 0.00 | 55 | 1018.0 |
| 20260905164055 | 91 | 205 | 1.0 | 3.0 | 0.00 | 0.00 | 0.00 | 57 | 1018.1 |
| 20260905163552 | 92 | 106 | 2.0 | 3.0 | 0.00 | 0.00 | 0.00 | 56 | 1018.0 |
| 20260905163048 | 91 | 136 | 0.0 | 2.0 | 0.00 | 0.00 | 0.00 | 57 | 1018.0 |
| 20260905162544 | 90 | 253 | 3.0 | 7.0 | 0.00 | 0.00 | 0.00 | 56 | 1018.2 |
| 20260905162043 | 91 | 186 | 2.0 | 6.0 | 0.00 | 0.00 | 0.00 | 57 | 1018.5 |
| 20260905161543 | 91 | 224 | 2.0 | 3.0 | 0.00 | 0.00 | 0.00 | 54 | 1018.5 |
| 20260905161041 | 92 | 139 | 1.0 | 2.0 | 0.00 | 0.00 | 0.00 | 55 | 1018.4 |
| 20260905160539 | 91 | 204 | 1.0 | 3.0 | 0.00 | 0.00 | 0.00 | 56 | 1018.3 |
| 20260905160034 | 89 | 286 | 3.0 | 3.0 | 0.00 | 0.00 | 0.00 | 60 | 1018.2 |
| 20260905155534 | 89 | 161 | 3.0 | 5.0 | 0.00 | 0.00 | 0.00 | 60 | 1018.3 |
| 20260905155033 | 90 | 187 | 1.0 | 6.0 | 0.00 | 0.00 | 0.00 | 59 | 1018.2 |
| 20260905154528 | 89 | 145 | 1.0 | 6.0 | 0.00 | 0.00 | 0.00 | 58 | 1018.2 |
| 20260905154024 | 89 | 125 | 4.0 | 5.0 | 0.00 | 0.00 | 0.00 | 57 | 1018.2 |
| 20260905153520 | 89 | 166 | 3.0 | 6.0 | 0.00 | 0.00 | 0.00 | 57 | 1018.3 |
| 20260905153019 | 89 | 123 | 3.0 | 3.0 | 0.00 | 0.00 | 0.00 | 57 | 1018.5 |
| 20260905152519 | 88 | 142 | 1.0 | 3.0 | 0.00 | 0.00 | 0.00 | 58 | 1018.6 |
| 20260905152015 | 88 | 160 | 2.0 | 5.0 | 0.00 | 0.00 | 0.00 | 59 | 1018.5 |
| 20260905151510 | 88 | 157 | 1.0 | 6.0 | 0.00 | 0.00 | 0.00 | 58 | 1018.7 |
| 20260905151005 | 87 | 73 | 1.0 | 2.0 | 0.00 | 0.00 | 0.00 | 58 | 1018.6 |